Flag Weather past 2 weeks in Des Moines, Iowa, U.S.A.

Now
54 °F

Passing clouds.


Feels Like: 53 °F
Forecast: 39 / 60 °F
Wind: 6 mph from Southwest

Location: Des Moines International Airport

Current Time: Oct 30, 2014 at 11:45:27 AM

Latest Report: Oct 30, 2014 at 10:54 AM


Visibility: 10 mi

Pressure: 30.03 "Hg

Humidity: 53%

Dew point: 37 °F

Location of Des MoinesLocation

Historic Weather in Des Moines — Graph

°F

Des Moines temperature yesterday

Maximum temperature yesterday: 55 °F (at 3:54 PM)
Minimum temperature yesterday: 42 °F (at 12:54 AM)
Average temperature yesterday: 47 °F

Past Weeks' High & Low Weather Summary

 TemperatureHumidityPressure
High75 °F (Oct 16, 2:54 PM)97% (Oct 24, 1:54 AM)30.25 "Hg (Oct 24, 1:54 AM)
Low40 °F (Oct 19, 3:54 AM)28% (Oct 25, 3:54 PM)29.00 "Hg (Oct 17, 12:20 AM)
Average56 °F64%29.98 "Hg
* Reported Oct 15 10:54 AM — Oct 30 10:54 AM, Des Moines, Weather by CustomWeather, © 2014

Note: Actual official high and low records may vary slightly from our data, if they occured in-between our weather recording intervals... More about our weather records

Advertising

Des Moines weather history for previous 24 hours

 ConditionsComfort  
Time TempWeatherWind HumidityBarometerVisibility
10:54 AM
Oct 30
54 °FPassing clouds.6 mph53%30.03 "Hg10 mi
9:54 AM50 °FPassing clouds.8 mph63%30.03 "Hg10 mi
8:54 AM45 °FPassing clouds.12 mph71%30.04 "Hg10 mi
7:54 AM44 °FPassing clouds.12 mph71%30.03 "Hg10 mi
6:54 AM44 °FOvercast.7 mph73%30.07 "Hg10 mi
5:54 AM43 °FOvercast.6 mph74%30.07 "Hg10 mi
4:54 AM44 °FOvercast.6 mph68%30.05 "Hg10 mi
3:54 AM44 °FOvercast.6 mph68%30.07 "Hg10 mi
2:54 AM42 °FPassing clouds.7 mph71%30.09 "Hg10 mi
1:54 AM42 °FPassing clouds.7 mph71%30.10 "Hg10 mi
12:54 AM42 °FPassing clouds.6 mph71%30.11 "Hg10 mi
11:54 PM
Oct 29
45 °FPassing clouds.6 mph63%30.11 "Hg10 mi
10:54 PM43 °FPassing clouds.6 mph68%30.13 "Hg10 mi
9:54 PM45 °FPassing clouds.6 mph63%30.14 "Hg10 mi
8:54 PM47 °FClear.6 mph59%30.13 "Hg10 mi
7:54 PM47 °FClear.6 mph59%30.14 "Hg10 mi
6:54 PM51 °FSunny.3 mph50%30.13 "Hg10 mi
5:54 PM52 °FSunny.3 mph47%30.13 "Hg10 mi
4:54 PM54 °FSunny.No wind45%30.14 "Hg10 mi
3:54 PM55 °FSunny.3 mph44%30.15 "Hg10 mi
2:54 PM53 °FPassing clouds.3 mph48%30.16 "Hg10 mi
1:54 PM52 °FPassing clouds.8 mph50%30.19 "Hg10 mi
12:54 PM51 °FPassing clouds.8 mph50%30.22 "Hg10 mi
11:54 AM48 °FPassing clouds.13 mph54%30.24 "Hg10 mi
Weather by CustomWeather, © 2014

See weather overviewHow to use our weather pages